period_start,C,m1,H,J0,J1,J2,J3,J4,J5,JA,JB,JC,JD,JJ,JK,JN,#
2016-05-07 00:00:31,0.02,0.85,0.00,21.24,25.99,29.74,14.76,49.98,1019.05,2042.00,3134.97,2927.42,3299.91,600.10,601.11,21.58,0000 0000 0000 0000 000000
2016-05-07 00:05:32,0.02,0.85,0.00,21.26,26.00,29.72,14.67,49.68,1019.06,2042.00,3134.54,2927.00,3299.10,599.74,600.80,21.63,0000 0000 0000 0000 000000
2016-05-07 00:10:33,0.00,0.85,0.00,21.27,26.00,29.76,14.75,49.93,1019.06,2042.00,3134.07,2926.99,3299.01,599.99,600.97,21.68,0000 0000 0000 0000 000000
2016-05-07 00:15:34,0.00,0.85,0.00,21.28,26.01,29.77,14.73,49.74,1019.06,2041.99,3134.00,2926.86,3298.99,599.99,600.91,21.73,0000 0000 0000 0000 000000
2016-05-07 00:20:36,0.02,0.85,0.00,21.31,26.02,29.76,14.72,49.76,1019.05,2041.98,3133.95,2926.25,3298.74,599.41,600.35,21.78,0000 0000 0000 0000 000000
2016-05-07 00:25:37,0.01,0.85,0.00,21.33,26.03,29.78,14.71,49.72,1019.05,2041.98,3133.57,2926.04,3298.21,599.91,600.86,21.83,0000 0000 0000 0000 000000
2016-05-07 00:30:38,0.01,0.85,0.00,21.37,26.05,29.80,14.70,49.63,1019.06,2041.97,3133.14,2926.01,3298.03,599.85,600.84,21.88,0000 0000 0000 0000 000000
2016-05-07 00:35:40,0.00,0.85,0.00,21.40,26.05,29.84,14.69,49.62,1019.06,2041.96,3133.01,2926.00,3298.00,600.03,600.58,21.93,0000 0000 0000 0000 000000
2016-05-07 00:40:41,0.00,0.85,0.00,21.44,26.07,29.91,14.78,49.71,1019.05,2041.93,3133.00,2925.99,3298.00,600.15,600.82,21.98,0000 0000 0000 0000 000000
2016-05-07 00:45:42,0.00,0.85,0.00,21.46,26.07,29.90,14.71,49.81,1019.05,2041.94,3132.96,2925.98,3297.96,600.09,600.65,22.03,0000 0000 0000 0000 000000
2016-05-07 00:50:43,0.02,0.85,0.00,21.48,26.10,29.98,14.78,49.80,1019.06,2041.85,3132.60,2925.60,3297.46,600.13,600.75,22.08,0000 0000 0000 0000 000000
2016-05-07 00:55:45,0.00,0.85,0.00,21.52,26.11,29.92,14.75,49.64,1019.06,2041.69,3132.05,2925.08,3297.03,600.25,600.68,22.13,0000 0000 0000 0000 000000
2016-05-07 01:00:46,-0.02,0.85,0.00,21.55,26.12,29.98,14.77,49.83,1019.06,2041.43,3131.98,2925.00,3296.99,600.10,600.45,22.18,0000 0000 0000 0000 000000
2016-05-07 01:05:47,-0.00,0.85,0.00,21.58,26.14,30.03,14.76,49.76,1019.06,2041.08,3131.45,2924.96,3296.42,600.14,600.58,22.23,0000 0000 0000 0000 000000
2016-05-07 01:10:49,0.01,0.85,0.00,21.63,26.15,30.06,14.75,49.88,1019.06,2041.04,3131.06,2924.78,3296.04,600.51,600.56,22.28,0000 0000 0000 0000 000000
2016-05-07 01:15:50,0.01,0.85,0.00,21.67,26.17,30.05,14.64,49.63,1019.06,2041.01,3131.00,2924.20,3296.00,600.05,600.22,22.33,0000 0000 0000 0000 000000
2016-05-07 01:20:51,0.00,0.85,0.00,21.72,26.20,30.10,14.75,49.90,1019.06,2041.00,3130.99,2924.01,3296.00,600.14,600.16,22.38,0000 0000 0000 0000 000000
2016-05-07 01:25:52,0.01,0.85,0.00,21.81,26.21,30.19,14.60,49.53,1019.06,2041.00,3130.83,2924.00,3295.78,600.08,599.80,22.43,0000 0000 0000 0000 000000
2016-05-07 01:30:53,0.01,0.85,0.00,22.47,26.25,30.02,14.64,49.62,1019.07,2041.00,3130.85,2923.99,3295.15,599.91,598.48,22.48,0000 0000 0000 0000 000000
2016-05-07 01:35:54,0.01,0.86,0.00,22.92,26.30,29.86,14.59,49.34,1019.08,2040.99,3130.78,2923.82,3295.01,600.21,597.76,22.53,0000 0000 0000 0000 000000
2016-05-07 01:40:55,0.01,0.86,0.00,23.13,26.37,29.84,14.60,49.33,1019.18,2040.78,3130.13,2923.10,3294.57,600.08,597.38,22.58,0000 0000 0000 0000 000000
2016-05-07 01:45:56,-0.04,0.85,0.00,23.23,26.43,29.94,14.51,49.51,1019.33,2040.13,3129.98,2922.93,3294.01,599.85,596.98,22.63,0000 0000 0000 0000 000000
2016-05-07 01:50:58,0.05,0.86,0.00,23.31,26.51,30.04,14.57,49.47,1019.51,2040.00,3129.27,2922.15,3293.52,599.99,597.02,22.68,0000 0000 0000 0000 000000
2016-05-07 01:55:59,0.00,0.86,0.00,23.43,26.58,30.15,14.53,49.29,1019.54,2039.96,3128.99,2921.91,3292.97,600.03,596.91,22.73,0000 0000 0000 0000 000000
2016-05-07 02:01:00,-0.02,0.86,0.00,23.55,26.65,30.27,14.50,49.38,1019.55,2039.40,3128.59,2921.18,3292.18,599.56,596.33,22.78,0000 0000 0000 0000 000000
2016-05-07 02:06:02,-0.00,0.85,0.00,23.50,26.73,30.34,14.58,49.61,1019.55,2039.01,3128.01,2920.94,3291.86,599.93,596.62,22.83,0000 0000 0000 0000 000000
2016-05-07 02:11:03,0.04,0.86,0.00,23.43,26.81,30.38,14.52,49.31,1019.55,2038.96,3127.64,2920.18,3291.08,600.09,597.06,22.88,0000 0000 0000 0000 000000
2016-05-07 02:16:04,-0.06,0.86,0.00,23.52,26.89,30.41,14.53,49.40,1019.55,2038.33,3127.05,2919.97,3290.68,599.84,596.52,22.93,0000 0000 0000 0000 000000
2016-05-07 02:21:06,0.03,0.86,0.00,23.74,26.96,30.49,14.60,49.37,1019.57,2038.00,3126.50,2919.28,3290.00,600.04,596.41,22.98,0000 0000 0000 0000 000000
2016-05-07 02:26:07,0.01,0.86,0.00,23.83,27.04,30.57,14.49,49.29,1019.57,2037.92,3126.01,2918.87,3289.29,600.03,596.14,23.03,0000 0000 0000 0000 000000
2016-05-07 02:31:08,-0.03,0.86,0.00,23.87,27.11,30.63,14.63,49.42,1019.58,2037.26,3125.43,2918.11,3288.87,600.45,596.47,23.08,0000 0000 0000 0000 000000
2016-05-07 02:36:09,0.01,0.86,0.00,23.93,27.19,30.67,14.47,49.13,1019.59,2037.00,3125.00,2917.87,3288.12,600.22,596.16,23.13,0000 0000 0000 0000 000000
2016-05-07 02:41:10,0.03,0.86,0.00,23.90,27.25,30.71,14.51,49.47,1019.81,2036.97,3124.39,2917.10,3287.75,599.71,595.74,23.18,0000 0000 0000 0000 000000
2016-05-07 02:46:11,-0.06,0.86,0.00,24.02,27.32,30.76,14.39,49.29,1019.91,2036.43,3124.01,2916.96,3287.02,599.94,595.87,23.23,0000 0000 0000 0000 000000
2016-05-07 02:51:12,0.03,0.86,0.00,23.99,27.38,30.81,14.50,49.28,1020.00,2036.02,3123.64,2916.21,3286.58,599.82,595.86,23.28,0000 0000 0000 0000 000000
2016-05-07 02:56:14,0.01,0.86,0.00,23.97,27.44,30.88,14.58,49.27,1020.02,2035.99,3123.04,2916.00,3286.01,600.07,596.21,23.33,0000 0000 0000 0000 000000
2016-05-07 03:01:15,0.01,0.86,0.00,24.09,27.50,30.92,14.53,49.28,1020.01,2035.95,3122.99,2915.73,3285.70,600.01,595.89,23.38,0000 0000 0000 0000 000000
2016-05-07 03:06:16,-0.04,0.86,0.00,24.15,27.56,30.96,14.57,49.36,1020.03,2035.33,3122.36,2915.06,3285.03,600.33,596.01,23.43,0000 0000 0000 0000 000000
2016-05-07 03:11:17,-0.00,0.86,0.00,24.18,27.61,30.99,14.45,49.19,1020.03,2035.00,3122.01,2914.97,3284.84,599.60,595.27,23.48,0000 0000 0000 0000 000000
2016-05-07 03:16:19,0.03,0.86,0.00,24.25,27.67,31.02,14.56,49.06,1020.03,2035.00,3121.92,2914.45,3284.11,599.89,595.38,23.53,0000 0000 0000 0000 000000
2016-05-07 03:21:20,0.01,0.86,0.00,24.29,27.71,31.05,14.49,49.14,1020.02,2034.96,3121.35,2914.02,3283.99,599.89,595.47,23.58,0000 0000 0000 0000 000000
2016-05-07 03:26:21,-0.04,0.86,0.00,24.31,27.76,31.05,14.51,49.09,1020.03,2034.50,3121.01,2913.97,3283.52,599.98,595.24,23.63,0000 0000 0000 0000 000000
2016-05-07 03:31:23,0.00,0.86,0.00,24.34,27.80,31.08,14.50,49.13,1020.03,2034.08,3120.97,2913.48,3283.02,599.89,595.33,23.68,0000 0000 0000 0000 000000
2016-05-07 03:36:24,0.01,0.86,0.00,24.36,27.84,31.07,14.61,49.27,1020.03,2034.00,3120.58,2913.03,3282.96,600.34,595.69,23.73,0000 0000 0000 0000 000000
2016-05-07 03:41:25,0.01,0.86,0.00,24.39,27.88,31.10,14.62,49.44,1020.03,2033.99,3120.07,2912.99,3282.48,600.03,595.23,23.78,0000 0000 0000 0000 000000
2016-05-07 03:46:27,0.01,0.86,0.00,24.42,27.91,31.11,14.52,49.25,1020.03,2033.98,3119.99,2912.82,3282.02,600.24,595.30,23.83,0000 0000 0000 0000 000000
2016-05-07 03:51:28,0.01,0.86,0.00,24.42,27.94,31.12,14.50,49.28,1020.03,2033.91,3119.96,2912.21,3281.99,599.90,595.02,23.88,0000 0000 0000 0000 000000
2016-05-07 03:56:29,-0.04,0.86,0.00,24.41,27.97,31.14,14.50,49.37,1020.04,2033.43,3119.51,2912.03,3281.67,599.45,594.75,23.93,0000 0000 0000 0000 000000
2016-05-07 04:01:31,-0.00,0.86,0.00,24.45,28.00,31.15,14.48,49.17,1020.05,2033.06,3119.04,2912.00,3281.07,599.84,595.12,23.98,0000 0000 0000 0000 000000
2016-05-07 04:06:32,0.00,0.86,0.00,24.47,28.02,31.16,14.50,49.22,1020.04,2033.01,3119.00,2911.96,3281.00,600.20,595.22,24.03,0000 0000 0000 0000 000000
2016-05-07 04:11:33,0.01,0.86,0.00,24.40,28.04,31.15,14.52,49.13,1020.05,2033.00,3118.91,2911.58,3280.96,600.33,595.56,24.08,0000 0000 0000 0000 000000
2016-05-07 04:16:34,0.03,0.86,0.00,24.47,28.06,31.17,14.49,49.07,1020.05,2033.00,3118.32,2911.08,3280.40,599.92,595.09,24.13,0000 0000 0000 0000 000000
2016-05-07 04:21:35,0.00,0.86,0.00,24.49,28.08,31.17,14.50,49.09,1020.06,2032.98,3118.04,2911.00,3280.03,600.24,595.28,24.18,0000 0000 0000 0000 000000
2016-05-07 04:26:36,0.00,0.86,0.00,24.55,28.10,31.17,14.46,49.04,1020.05,2032.97,3118.02,2911.00,3280.01,599.61,594.58,24.23,0000 0000 0000 0000 000000
2016-05-07 04:31:38,-0.00,0.86,0.00,24.56,28.12,31.20,14.40,49.13,1020.04,2032.92,3117.98,2910.93,3279.99,599.61,594.55,24.28,0000 0000 0000 0000 000000
2016-05-07 04:36:39,-0.01,0.86,0.00,24.57,28.13,31.19,14.51,48.96,1020.05,2032.66,3117.75,2910.44,3279.76,600.13,595.01,24.33,0000 0000 0000 0000 000000
2016-05-07 04:41:40,0.01,0.86,0.00,24.59,28.15,31.20,14.46,49.18,1020.05,2032.41,3117.20,2910.07,3279.27,599.98,594.82,24.38,0000 0000 0000 0000 000000
2016-05-07 04:46:41,-0.02,0.86,0.00,24.60,28.17,31.20,14.54,49.13,1020.04,2032.16,3117.01,2910.01,3279.02,600.24,595.00,24.43,0000 0000 0000 0000 000000
2016-05-07 04:51:42,0.00,0.86,0.00,24.62,28.17,31.20,14.47,49.17,1020.05,2032.11,3116.99,2910.00,3279.00,599.96,594.79,24.48,0000 0000 0000 0000 000000
2016-05-07 04:56:43,-0.00,0.86,0.00,24.66,28.17,31.22,14.52,49.34,1020.04,2032.04,3116.93,2909.98,3278.95,600.08,594.81,24.54,0000 0000 0000 0000 000000
2016-05-07 05:01:44,0.02,0.86,0.00,24.66,28.19,31.21,14.44,49.09,1020.04,2032.00,3116.52,2909.83,3278.49,600.02,594.82,24.59,0000 0000 0000 0000 000000
2016-05-07 05:06:46,0.02,0.86,0.00,24.66,28.20,31.21,14.49,49.08,1020.05,2032.00,3116.08,2909.31,3278.06,599.91,594.61,24.64,0000 0000 0000 0000 000000
2016-05-07 05:11:47,0.00,0.86,0.00,24.71,28.20,31.20,14.52,49.08,1020.05,2032.00,3116.00,2909.11,3278.00,600.28,594.85,24.69,0000 0000 0000 0000 000000
2016-05-07 05:16:48,0.00,0.86,0.00,24.70,28.22,31.20,14.43,49.08,1020.05,2032.00,3116.00,2909.03,3278.00,599.96,594.64,24.74,0000 0000 0000 0000 000000
2016-05-07 05:21:49,0.00,0.86,0.00,24.71,28.22,31.21,14.41,48.98,1020.05,2032.00,3115.97,2909.00,3277.98,599.85,594.48,24.79,0000 0000 0000 0000 000000
2016-05-07 05:26:50,0.02,0.86,0.00,24.73,28.22,31.21,14.49,48.98,1020.15,2032.00,3115.38,2908.98,3277.75,600.24,594.86,24.84,0000 0000 0000 0000 000000
2016-05-07 05:31:51,0.00,0.86,0.00,24.74,28.22,31.21,14.44,49.18,1020.17,2032.00,3115.07,2908.98,3277.45,599.95,594.65,24.89,0000 0000 0000 0000 000000
2016-05-07 05:36:53,0.01,0.86,0.00,24.77,28.22,31.20,14.47,49.23,1020.11,2032.00,3115.03,2908.97,3277.15,600.02,594.60,24.94,0000 0000 0000 0000 000000
2016-05-07 05:41:54,0.01,0.86,0.00,24.78,28.23,31.22,14.48,49.07,1020.07,2032.00,3115.00,2908.79,3277.02,600.18,594.67,24.99,0000 0000 0000 0000 000000
2016-05-07 05:46:55,0.00,0.86,0.00,24.79,28.24,31.22,14.44,48.98,1020.09,2032.00,3115.00,2908.77,3277.01,600.20,594.70,25.04,0000 0000 0000 0000 000000
2016-05-07 05:51:57,0.01,0.86,0.00,24.82,28.25,31.20,14.49,49.01,1020.08,2032.00,3114.99,2908.47,3277.00,599.77,594.24,25.09,0000 0000 0000 0000 000000
2016-05-07 05:56:58,0.01,0.86,0.00,24.82,28.25,31.19,14.37,49.12,1020.09,2032.00,3114.94,2908.14,3277.00,599.97,594.34,25.14,0000 0000 0000 0000 000000
2016-05-07 06:01:59,0.00,0.86,0.00,24.84,28.25,31.21,14.51,48.97,1020.06,2032.00,3114.81,2908.07,3277.00,600.39,594.79,25.19,0000 0000 0000 0000 000000
2016-05-07 06:07:00,0.00,0.86,0.00,24.88,28.25,31.20,14.50,48.82,1020.08,2032.00,3114.38,2908.03,3276.99,600.24,594.52,25.24,0000 0000 0000 0000 000000
2016-05-07 06:12:01,0.00,0.86,0.00,24.91,28.25,31.19,14.45,48.83,1020.10,2032.00,3114.17,2908.00,3276.96,599.97,594.24,25.29,0000 0000 0000 0000 000000
2016-05-07 06:17:02,0.00,0.87,0.00,24.92,28.25,31.18,14.46,49.03,1020.08,2031.99,3114.01,2908.00,3276.70,599.63,593.94,25.34,0000 0000 0000 0000 000000
2016-05-07 06:22:03,-0.00,0.87,0.00,24.94,28.27,31.19,14.41,48.85,1020.08,2031.99,3114.00,2908.00,3276.44,600.08,594.25,25.39,0000 0000 0000 0000 000000
2016-05-07 06:27:05,0.01,0.87,0.00,24.95,28.27,31.18,14.39,48.77,1020.11,2031.99,3114.00,2908.00,3276.13,600.09,594.23,25.44,0000 0000 0000 0000 000000
2016-05-07 06:32:06,0.00,0.87,0.00,24.96,28.27,31.17,14.45,48.95,1020.10,2031.99,3113.98,2907.98,3276.02,600.18,594.33,25.49,0000 0000 0000 0000 000000
2016-05-07 06:37:07,0.00,0.87,0.00,24.97,28.27,31.18,14.45,48.98,1020.09,2031.99,3113.87,2907.97,3276.00,600.15,594.13,25.54,0000 0000 0000 0000 000000
2016-05-07 06:42:09,0.01,0.87,0.00,24.99,28.27,31.19,14.46,48.93,1020.16,2031.99,3113.30,2907.77,3276.00,600.22,594.28,25.59,0000 0000 0000 0000 000000
2016-05-07 06:47:10,0.01,0.87,0.00,25.01,28.29,31.18,14.41,48.83,1020.23,2031.99,3113.04,2907.36,3275.98,599.91,594.02,25.64,0000 0000 0000 0000 000000
2016-05-07 06:52:11,0.00,0.87,0.00,25.02,28.30,31.19,14.44,48.95,1020.15,2031.99,3113.00,2907.13,3275.96,600.30,594.37,25.69,0000 0000 0000 0000 000000
2016-05-07 06:57:12,-0.00,0.87,0.00,25.01,28.30,31.18,14.36,48.95,1020.09,2031.99,3113.00,2907.05,3275.81,599.68,593.72,25.74,0000 0000 0000 0000 000000
2016-05-07 07:02:14,0.00,0.87,0.00,25.01,28.30,31.18,14.43,48.80,1020.10,2031.98,3112.98,2907.01,3275.51,599.86,593.93,25.79,0000 0000 0000 0000 000000
2016-05-07 07:07:15,0.01,0.87,0.00,25.02,28.30,31.20,14.46,48.78,1020.09,2031.98,3112.91,2907.00,3275.13,600.26,594.36,25.84,0000 0000 0000 0000 000000
2016-05-07 07:12:16,0.01,0.87,0.00,25.02,28.30,31.19,14.45,48.91,1020.06,2031.99,3112.47,2907.00,3275.02,600.08,594.19,25.89,0000 0000 0000 0000 000000
2016-05-07 07:17:18,0.00,0.87,0.00,25.02,28.30,31.22,14.37,49.19,1020.07,2031.98,3112.11,2907.00,3275.02,599.67,593.72,25.94,0000 0000 0000 0000 000000
2016-05-07 07:22:19,-0.00,0.87,0.00,25.02,28.30,31.22,14.39,48.98,1020.09,2031.99,3112.01,2906.99,3275.00,600.06,594.12,25.99,0000 0000 0000 0000 000000
2016-05-07 07:27:20,0.00,0.87,0.00,25.00,28.30,31.19,14.46,48.81,1020.13,2031.99,3111.99,2906.93,3274.99,600.18,594.21,26.04,0000 0000 0000 0000 000000
2016-05-07 07:32:21,0.01,0.87,0.00,24.97,28.31,31.19,14.41,49.08,1020.16,2031.98,3111.96,2906.60,3274.93,599.79,593.90,26.09,0000 0000 0000 0000 000000
2016-05-07 07:37:22,0.03,0.87,0.00,24.97,28.31,31.20,14.47,49.09,1020.16,2031.98,3111.61,2906.27,3274.42,599.88,594.21,26.14,0000 0000 0000 0000 000000
2016-05-07 07:42:23,0.01,0.87,0.00,24.97,28.31,31.20,14.49,48.98,1020.17,2031.98,3111.04,2906.05,3274.04,599.89,593.99,26.19,0000 0000 0000 0000 000000
2016-05-07 07:47:25,0.00,0.87,0.00,25.00,28.31,31.19,14.42,48.88,1020.23,2031.97,3111.00,2906.00,3274.00,600.01,594.27,26.24,0000 0000 0000 0000 000000
2016-05-07 07:52:26,0.00,0.87,0.00,25.00,28.32,31.20,14.49,48.82,1020.34,2031.97,3110.99,2906.00,3274.00,599.95,594.07,26.29,0000 0000 0000 0000 000000
2016-05-07 07:57:27,0.00,0.87,0.00,25.00,28.32,31.21,14.48,49.07,1020.42,2031.99,3110.97,2906.00,3274.00,600.01,594.19,26.34,0000 0000 0000 0000 000000
2016-05-07 08:02:29,0.00,0.87,0.00,24.99,28.32,31.21,14.49,48.99,1020.47,2031.98,3110.79,2905.99,3273.97,600.20,594.37,26.39,0000 0000 0000 0000 000000
2016-05-07 08:07:30,0.01,0.87,0.00,24.96,28.31,31.19,14.42,49.11,1020.50,2031.98,3110.23,2905.98,3273.82,600.01,594.58,26.44,0000 0000 0000 0000 000000
2016-05-07 08:12:31,0.01,0.87,0.00,24.95,28.31,31.20,14.40,49.09,1020.52,2031.98,3110.01,2905.94,3273.33,600.14,594.67,26.49,0000 0000 0000 0000 000000
2016-05-07 08:17:32,0.01,0.88,0.00,24.97,28.31,31.21,14.53,49.27,1020.52,2031.98,3110.00,2905.60,3273.11,599.89,594.25,26.54,0000 0000 0000 0000 000000
2016-05-07 08:22:34,0.01,0.88,0.00,24.97,28.31,31.19,14.49,49.04,1020.52,2031.98,3109.99,2905.19,3273.01,600.13,594.48,26.59,0000 0000 0000 0000 000000
2016-05-07 08:27:35,0.00,0.88,0.00,24.97,28.30,31.21,14.41,48.92,1020.52,2031.98,3109.90,2905.07,3273.00,599.79,594.29,26.64,0000 0000 0000 0000 000000
2016-05-07 08:32:37,0.01,0.88,0.00,24.96,28.30,31.21,14.48,49.14,1020.52,2031.97,3109.39,2905.01,3272.99,600.10,594.42,26.69,0000 0000 0000 0000 000000
2016-05-07 08:37:38,0.00,0.88,0.00,24.92,28.30,31.22,14.50,49.08,1020.52,2031.98,3109.04,2905.00,3272.98,600.67,595.15,26.74,0000 0000 0000 0000 000000
2016-05-07 08:42:39,0.01,0.88,0.00,24.92,28.30,31.22,14.52,49.17,1020.52,2031.97,3109.00,2905.00,3272.65,599.99,594.37,26.79,0000 0000 0000 0000 000000
2016-05-07 08:47:40,0.00,0.88,0.00,24.94,28.30,31.20,14.50,49.21,1020.52,2031.99,3108.99,2904.99,3272.21,600.30,594.66,26.84,0000 0000 0000 0000 000000
2016-05-07 08:52:42,0.01,0.88,0.00,24.95,28.30,31.21,14.44,48.96,1020.52,2031.98,3108.76,2904.93,3272.02,599.93,594.35,26.89,0000 0000 0000 0000 000000
2016-05-07 08:57:43,0.02,0.88,0.00,24.95,28.30,31.19,14.47,49.02,1020.52,2031.98,3108.11,2904.46,3272.00,599.79,594.13,26.94,0000 0000 0000 0000 000000
2016-05-07 09:02:44,0.01,0.88,0.00,24.96,28.30,31.19,14.44,48.92,1020.53,2031.98,3108.00,2904.08,3271.99,599.80,594.16,26.99,0000 0000 0000 0000 000000
2016-05-07 09:07:46,0.00,0.88,0.00,24.97,28.29,31.18,14.45,48.89,1020.52,2031.98,3107.97,2904.01,3271.90,599.85,594.23,27.04,0000 0000 0000 0000 000000
2016-05-07 09:12:47,0.02,0.88,0.00,24.97,28.28,31.19,14.52,49.07,1020.53,2031.98,3107.44,2904.00,3271.27,600.20,594.53,27.09,0000 0000 0000 0000 000000
2016-05-07 09:17:48,0.00,0.88,0.00,24.97,28.27,31.19,14.43,48.88,1020.53,2031.99,3107.02,2903.99,3271.03,600.26,594.67,27.14,0000 0000 0000 0000 000000
2016-05-07 09:22:50,0.00,0.88,0.00,24.97,28.27,31.21,14.41,48.91,1020.53,2031.98,3107.00,2903.89,3271.00,599.63,593.99,27.19,0000 0000 0000 0000 000000
2016-05-07 09:27:51,0.02,0.88,0.00,24.97,28.27,31.18,14.45,48.84,1020.53,2031.99,3106.78,2903.39,3270.96,600.14,594.54,27.24,0000 0000 0000 0000 000000
2016-05-07 09:32:52,0.03,0.88,0.00,24.97,28.27,31.20,14.36,48.89,1020.53,2031.99,3106.08,2903.03,3270.34,600.19,594.40,27.29,0000 0000 0000 0000 000000
2016-05-07 09:37:54,0.00,0.89,0.00,24.97,28.27,31.18,14.42,48.90,1020.54,2031.99,3105.96,2903.00,3270.02,599.85,594.26,27.34,0000 0000 0000 0000 000000
2016-05-07 09:42:55,0.01,0.89,0.00,24.97,28.27,31.18,14.42,48.91,1020.54,2031.98,3105.39,2902.91,3269.98,600.13,594.51,27.39,0000 0000 0000 0000 000000
2016-05-07 09:47:56,0.03,0.89,0.00,24.95,28.27,31.19,14.49,48.91,1020.53,2031.98,3105.01,2902.27,3269.61,600.20,594.70,27.44,0000 0000 0000 0000 000000
2016-05-07 09:52:57,0.00,0.89,0.00,24.95,28.27,31.18,14.42,48.98,1020.53,2031.99,3104.93,2902.02,3269.07,599.80,594.19,27.49,0000 0000 0000 0000 000000
2016-05-07 09:57:59,0.01,0.89,0.00,24.95,28.27,31.18,14.48,48.94,1020.54,2031.99,3104.19,2902.00,3269.00,600.21,594.56,27.54,0000 0000 0000 0000 000000
2016-05-07 10:03:00,0.00,0.89,0.00,24.95,28.25,31.21,14.47,48.99,1020.53,2031.99,3103.99,2901.98,3268.94,600.17,594.76,27.59,0000 0000 0000 0000 000000
2016-05-07 10:08:01,0.03,0.89,0.00,24.95,28.25,31.17,14.45,48.98,1020.55,2031.99,3103.69,2901.64,3268.39,600.20,594.56,27.64,0000 0000 0000 0000 000000
2016-05-07 10:13:02,0.02,0.89,0.00,24.96,28.25,31.17,14.49,49.17,1020.55,2031.99,3103.08,2901.13,3268.02,599.88,594.45,27.69,0000 0000 0000 0000 000000
2016-05-07 10:18:03,0.00,0.89,0.00,24.95,28.25,31.18,14.47,49.15,1020.54,2031.99,3102.96,2901.01,3268.00,600.50,595.00,27.74,0000 0000 0000 0000 000000
2016-05-07 10:23:04,0.01,0.89,0.00,24.94,28.25,31.21,14.48,49.07,1020.55,2031.99,3102.40,2900.99,3267.88,600.45,594.92,27.79,0000 0000 0000 0000 000000
2016-05-07 10:28:06,0.02,0.89,0.00,24.94,28.25,31.17,14.51,49.13,1020.57,2031.99,3102.00,2900.78,3267.21,600.19,594.60,27.84,0000 0000 0000 0000 000000
2016-05-07 10:33:07,0.02,0.90,0.00,24.93,28.24,31.17,14.43,49.22,1020.58,2031.99,3101.75,2900.16,3267.01,599.99,594.29,27.90,0000 0000 0000 0000 000000
2016-05-07 10:38:09,0.01,0.90,0.00,24.92,28.23,31.17,14.49,49.00,1020.66,2031.99,3101.05,2900.01,3266.94,599.94,594.49,27.95,0000 0000 0000 0000 000000
2016-05-07 10:43:10,0.01,0.90,0.00,24.92,28.22,31.15,14.45,48.93,1020.72,2031.99,3100.97,2900.00,3266.31,600.12,594.85,28.00,0000 0000 0000 0000 000000
2016-05-07 10:48:11,0.03,0.90,0.00,24.90,28.22,31.14,14.46,48.96,1020.80,2031.99,3100.26,2899.77,3266.01,600.12,594.79,28.05,0000 0000 0000 0000 000000
2016-05-07 10:53:12,0.01,0.90,0.00,24.90,28.22,31.14,14.44,49.03,1020.91,2031.99,3100.00,2899.16,3265.98,599.72,594.60,28.10,0000 0000 0000 0000 000000
2016-05-07 10:58:14,0.01,0.90,0.00,24.90,28.22,31.15,14.45,49.07,1020.97,2031.99,3099.81,2899.00,3265.63,599.95,594.78,28.15,0000 0000 0000 0000 000000
2016-05-07 11:03:15,0.01,0.90,0.00,24.90,28.21,31.13,14.42,49.02,1020.98,2031.99,3099.08,2898.98,3265.09,599.74,594.64,28.20,0000 0000 0000 0000 000000
2016-05-07 11:08:16,0.00,0.90,0.00,24.89,28.20,31.15,14.50,49.02,1020.97,2031.99,3098.97,2898.77,3265.00,600.13,595.02,28.25,0000 0000 0000 0000 000000
2016-05-07 11:13:18,0.02,0.90,0.00,24.87,28.20,31.14,14.49,49.21,1021.01,2031.99,3098.59,2898.32,3264.96,600.35,595.09,28.30,0000 0000 0000 0000 000000
2016-05-07 11:18:19,0.02,0.90,0.00,24.87,28.20,31.13,14.48,49.03,1021.01,2031.99,3098.02,2898.02,3264.33,599.78,594.65,28.35,0000 0000 0000 0000 000000
2016-05-07 11:23:20,0.00,0.90,0.00,24.86,28.20,31.13,14.47,49.05,1021.01,2031.99,3097.87,2898.00,3264.00,599.91,594.64,28.40,0000 0000 0000 0000 000000
2016-05-07 11:28:21,0.02,0.91,0.00,24.82,28.18,31.13,14.48,49.01,1021.01,2031.99,3097.14,2897.90,3263.98,600.09,595.10,28.45,0000 0000 0000 0000 000000
2016-05-07 11:33:23,0.03,0.91,0.00,24.83,28.17,31.13,14.44,49.03,1021.01,2031.99,3096.99,2897.19,3263.48,599.49,594.46,28.50,0000 0000 0000 0000 000000
2016-05-07 11:38:24,0.02,0.91,0.00,24.82,28.17,31.13,14.41,48.95,1021.01,2032.00,3096.39,2897.01,3263.03,599.81,594.75,28.55,0000 0000 0000 0000 000000
2016-05-07 11:43:26,0.00,0.91,0.00,24.82,28.17,31.14,14.45,48.92,1021.01,2032.01,3096.01,2896.99,3263.00,599.96,594.93,28.60,0000 0000 0000 0000 000000
2016-05-07 11:48:27,0.02,0.91,0.00,24.82,28.17,31.12,14.46,48.98,1021.01,2032.00,3095.63,2896.77,3262.81,599.64,594.61,28.65,0000 0000 0000 0000 000000
2016-05-07 11:53:28,0.03,0.91,0.00,24.82,28.17,31.13,14.44,48.97,1021.01,2032.00,3095.01,2896.07,3262.10,599.62,594.61,28.70,0000 0000 0000 0000 000000
2016-05-07 11:58:30,0.01,0.91,0.00,24.80,28.16,31.13,14.51,49.08,1021.01,2032.01,3094.77,2896.00,3262.00,600.13,595.29,28.75,0000 0000 0000 0000 000000
2016-05-07 12:03:31,0.02,0.91,0.00,24.80,28.15,31.13,14.55,48.97,1021.01,2032.02,3094.06,2895.92,3261.70,600.24,595.29,28.80,0000 0000 0000 0000 000000
2016-05-07 12:08:32,0.04,0.91,0.00,24.77,28.15,31.15,14.46,48.92,1021.01,2032.02,3093.64,2895.20,3261.04,599.71,594.76,28.85,0000 0000 0000 0000 000000
2016-05-07 12:13:33,0.01,0.92,0.00,24.75,28.15,31.14,14.47,48.95,1021.01,2032.01,3093.03,2895.00,3260.97,600.00,595.07,28.90,0000 0000 0000 0000 000000
2016-05-07 12:18:34,0.02,0.92,0.00,24.72,28.15,31.13,14.46,48.87,1021.01,2032.01,3092.70,2894.98,3260.42,599.89,595.04,28.95,0000 0000 0000 0000 000000
2016-05-07 12:23:36,0.03,0.92,0.00,24.74,28.14,31.13,14.45,48.99,1021.01,2032.02,3092.03,2894.45,3260.02,599.59,594.82,29.00,0000 0000 0000 0000 000000
2016-05-07 12:28:38,0.01,0.92,0.00,24.71,28.12,31.11,14.52,48.90,1021.02,2032.03,3091.63,2894.02,3259.92,600.05,595.19,29.05,0000 0000 0000 0000 000000
2016-05-07 12:33:39,0.02,0.92,0.00,24.71,28.12,31.11,14.46,48.92,1021.02,2032.03,3091.02,2893.97,3259.24,599.75,594.92,29.10,0000 0000 0000 0000 000000
2016-05-07 12:38:40,0.03,0.92,0.00,24.71,28.12,31.12,14.50,48.91,1021.02,2032.04,3090.54,2893.49,3258.99,600.71,595.84,29.15,0000 0000 0000 0000 000000
2016-05-07 12:43:41,0.02,0.92,0.00,24.70,28.12,31.12,14.52,49.07,1021.03,2032.03,3090.01,2893.02,3258.57,599.91,595.08,29.20,0000 0000 0000 0000 000000
2016-05-07 12:48:43,0.02,0.92,0.00,24.69,28.12,31.13,14.44,48.92,1021.06,2032.05,3089.60,2892.99,3258.04,600.14,595.31,29.25,0000 0000 0000 0000 000000
2016-05-07 12:53:44,0.02,0.93,0.00,24.66,28.11,31.12,14.40,49.07,1021.03,2032.05,3089.00,2892.54,3257.93,599.93,595.16,29.30,0000 0000 0000 0000 000000